This is the latest recevied weather packets stored in our database for station/object KY4OP-13. If no packets are shown the sender has not sent any weather packets the latest 10 day(s).
| Time | Temp. | Humidity | Pressure | Rain* | Wind** | Luminosity | Snow |
|---|---|---|---|---|---|---|---|
| 1777904362 | 18.33° C | 44% | 1016.3 hPa | 0 mm | - | - | - |
| 1777904059 | 17.78° C | 45% | 1016.2 hPa | 0 mm | - | - | - |
| 1777903756 | 17.78° C | 49% | 1016.2 hPa | 0 mm | - | - | - |
| 1777903451 | 17.78° C | 48% | 1016.3 hPa | 0 mm | - | - | - |
| 1777903148 | 17.22° C | 49% | 1016.4 hPa | 0 mm | - | - | - |
| 1777902845 | 16.67° C | 50% | 1016.5 hPa | 0 mm | - | - | - |
| 1777902542 | 16.67° C | 49% | 1016.5 hPa | 0 mm | - | - | - |
| 1777902239 | 16.11° C | 51% | 1016.7 hPa | 0 mm | - | - | - |
| 1777901937 | 16.11° C | 52% | 1016.6 hPa | 0 mm | - | - | - |
| 1777901635 | 15.56° C | 52% | 1016.7 hPa | 0 mm | - | - | - |
| 1777901332 | 15° C | 53% | 1016.8 hPa | 0 mm | - | - | - |
| 1777901029 | 15° C | 58% | 1016.7 hPa | 0 mm | - | - | - |
| 1777900726 | 15° C | 55% | 1017 hPa | 0 mm | - | - | - |
| 1777900423 | 14.44° C | 56% | 1016.9 hPa | 0 mm | - | - | - |
| 1777900120 | 13.89° C | 56% | 1016.9 hPa | 0 mm | - | - | - |
| 1777899817 | 13.33° C | 56% | 1017 hPa | 0 mm | - | - | - |
| 1777899514 | 12.78° C | 59% | 1016.9 hPa | 0 mm | - | - | - |
| 1777899212 | 12.22° C | 62% | 1016.9 hPa | 0 mm | - | - | - |
| 1777898909 | 11.67° C | 65% | 1017.2 hPa | 0 mm | - | - | - |
| 1777898606 | 11.11° C | 68% | 1017.1 hPa | 0 mm | - | - | - |
| 1777898303 | 11.11° C | 69% | 1017.1 hPa | 0 mm | - | - | - |
| 1777898000 | 10.56° C | 69% | 1017.1 hPa | 0 mm | - | - | - |
| 1777897696 | 10.56° C | 70% | 1017.2 hPa | 0 mm | - | - | - |
| 1777897393 | 10° C | 72% | 1017 hPa | 0 mm | - | - | - |
| 1777897089 | 9.44° C | 73% | 1017 hPa | 0 mm | - | - | - |
* Rain latest hour (hover to see other rain measurements)
** Current wind speed in m/s (hover to see current wind gust speed)